GW6932 Weather Reports


time (UTC)temp
F
wind
direction
speed
knots
gust
knots
rain 1hr
in
rain 24hr
in
rain mn
in
humidity
%
barometer
mb
20260510033410 69 63 0.9 0.9 0.00 0.37 0.37 94 1012.4
20260510032907 69 102 1.7 1.7 0.00 0.37 0.37 94 1012.3
20260510032404 69 142 0.0 0.9 0.00 0.37 0.37 94 1012.2
20260510031859 69 88 1.7 4.3 0.07 0.37 0.37 94 1012.1
20260510031355 69 145 3.5 4.3 0.50 0.37 0.37 93 1012.0
20260510030855 69 123 2.6 7.8 0.71 0.36 0.36 93 1012.0
20260510030351 70 120 3.5 4.3 0.26 0.28 0.28 92 1012.3
20260510025849 70 128 2.6 3.5 0.07 0.24 0.24 92 1012.5
20260510025346 70 131 2.6 3.5 0.14 0.23 0.23 91 1012.4
20260510024843 70 101 2.6 3.5 0.54 0.23 0.23 91 1012.6
20260510024340 70 85 1.7 1.7 0.61 0.21 0.21 89 1012.5
20260510023836 70 60 0.9 3.5 0.17 0.13 0.13 88 1012.6
20260510023332 71 61 2.6 5.2 0.05 0.10 0.10 87 1012.3
20260510022830 71 70 1.7 2.6 0.19 0.10 0.10 88 1012.2
20260510022329 71 78 2.6 6.1 0.19 0.09 0.09 86 1011.9
20260510021828 74 155 7.0 10.4 0.07 0.07 0.07 84 1011.4
20260510021326 74 113 4.3 7.0 0.14 0.06 0.06 87 1011.2
20260510020822 75 79 5.2 7.8 0.21 0.06 0.06 83 1011.0
20260510020317 76 91 2.6 2.6 0.12 0.04 0.04 82 1010.5
20260510015813 77 79 1.7 1.7 0.05 0.02 0.02 79 1010.1
20260510015310 77 75 0.0 2.6 0.07 0.01 0.01 78 1010.1
20260510014805 78 114 0.9 1.7 0.05 0.01 0.01 76 1009.7
20260510014302 79 162 0.9 1.7 0.00 0.00 0.00 72 1009.9
20260510013758 80 149 0.0 0.9 0.00 0.00 0.00 70 1009.7
20260510013254 82 268 0.0 1.7 0.00 0.00 0.00 67 1009.8
20260510012749 83 214 1.7 3.5 0.00 0.00 0.00 62 1009.6
20260510012244 83 151 2.6 5.2 0.00 0.00 0.00 58 1009.7
20260510011743 83 37 0.0 1.7 0.00 0.00 0.00 62 1009.5
20260510011239 84 227 0.0 2.6 0.00 0.00 0.00 64 1009.3
20260510010736 84 73 0.9 0.9 0.00 0.00 0.00 67 1009.2
20260510010233 84 68 0.9 2.6 0.00 0.00 0.00 66 1009.0
20260510005730 84 103 0.0 1.7 0.00 0.00 0.00 65 1009.1
20260510005226 84 66 0.9 1.7 0.00 0.00 0.00 64 1008.8
20260510004724 85 97 0.0 0.9 0.00 0.00 0.00 64 1009.1
20260510004222 85 114 0.0 1.7 0.00 0.00 0.00 64 1008.8
20260510003719 85 89 0.0 1.7 0.00 0.00 0.00 63 1008.5
20260510003215 85 44 0.0 0.9 0.00 0.00 0.00 62 1008.7
20260510002714 85 129 0.9 0.9 0.00 0.00 0.00 63 1008.6
20260510002212 85 119 0.0 0.9 0.00 0.00 0.00 64 1008.7
20260510001708 85 119 0.9 0.9 0.00 0.00 0.00 63 1008.5
20260510001207 85 72 0.0 1.7 0.00 0.00 0.00 63 1008.8
20260510000708 85 123 0.9 1.7 0.00 0.00 0.00 63 1008.5
20260510000205 85 109 0.0 1.7 0.00 0.00 0.00 63 1008.5
20260509235702 86 110 0.9 1.7 0.00 0.00 0.00 62 1008.6
20260509235158 86 87 0.0 1.7 0.00 0.00 0.00 62 1008.5
20260509234654 86 130 1.7 1.7 0.00 0.00 0.00 63 1008.4
20260509234152 86 89 0.0 1.7 0.00 0.00 0.00 62 1008.5
20260509233650 86 87 0.0 0.9 0.00 0.00 0.00 63 1008.4
20260509233147 86 111 0.9 1.7 0.00 0.00 0.00 63 1008.6
20260509232643 86 68 0.0 1.7 0.00 0.00 0.00 62 1008.4
20260509232140 86 40 0.0 1.7 0.00 0.00 0.00 62 1008.4
20260509231636 86 100 0.9 1.7 0.00 0.00 0.00 62 1008.6
20260509231134 86 67 0.9 2.6 0.00 0.00 0.00 61 1008.5
20260509230631 86 91 0.9 1.7 0.00 0.00 0.00 61 1008.4
20260509230128 86 135 0.0 1.7 0.00 0.00 0.00 62 1008.0
20260509225624 87 98 0.9 1.7 0.00 0.00 0.00 61 1008.2
20260509225119 87 83 0.0 0.9 0.00 0.00 0.00 60 1008.4
20260509224614 87 37 0.0 1.7 0.00 0.00 0.00 61 1008.2
20260509224112 87 87 0.9 1.7 0.00 0.00 0.00 60 1008.4
20260509223609 88 123 1.7 3.5 0.00 0.00 0.00 59 1008.4
20260509223107 88 96 0.0 1.7 0.00 0.00 0.00 59 1008.4
20260509222602 89 110 1.7 1.7 0.00 0.00 0.00 57 1008.0
20260509222058 89 73 0.9 0.9 0.00 0.00 0.00 59 1008.0
20260509221554 88 88 1.7 2.6 0.00 0.00 0.00 57 1007.9
20260509221050 90 77 2.6 3.5 0.00 0.00 0.00 56 1008.1
20260509220546 91 130 1.7 3.5 0.00 0.00 0.00 55 1008.0
20260509220043 91 113 0.0 1.7 0.00 0.00 0.00 56 1007.9
20260509215538 91 99 0.9 2.6 0.00 0.00 0.00 56 1008.0
20260509215036 89 124 0.0 2.6 0.00 0.00 0.00 55 1008.1
20260509214533 89 129 1.7 2.6 0.00 0.00 0.00 56 1008.1
20260509214029 90 177 1.7 5.2 0.00 0.00 0.00 57 1008.1
20260509213526 91 71 0.0 1.7 0.00 0.00 0.00 55 1007.9
20260509213022 91 333 0.9 0.9 0.00 0.00 0.00 53 1007.9
20260509212520 92 76 2.6 2.6 0.00 0.00 0.00 51 1008.1
20260509212017 91 243 0.0 0.9 0.00 0.00 0.00 54 1008.0
20260509211512 91 293 0.0 1.7 0.00 0.00 0.00 55 1008.1
20260509211009 92 332 0.0 1.7 0.00 0.00 0.00 52 1008.4
20260509210506 93 35 0.9 2.6 0.00 0.00 0.00 52 1008.4
20260509210002 93 260 0.0 1.7 0.00 0.00 0.00 55 1008.2
20260509205456 93 32 1.7 1.7 0.00 0.00 0.00 53 1008.2
20260509204952 92 299 0.0 1.7 0.00 0.00 0.00 53 1008.4
20260509204449 91 152 0.0 1.7 0.00 0.00 0.00 59 1008.4
20260509203945 91 181 0.9 1.7 0.00 0.00 0.00 54 1008.5
20260509203441 91 248 0.9 1.7 0.00 0.00 0.00 55 1008.5
20260509202939 91 42 0.0 2.6 0.00 0.00 0.00 53 1008.7
20260509202435 90 279 1.7 1.7 0.00 0.00 0.00 59 1008.8
20260509201930 90 235 0.0 3.5 0.00 0.00 0.00 59 1008.8
20260509201425 90 127 1.7 1.7 0.00 0.00 0.00 58 1008.8
20260509200922 89 124 0.9 1.7 0.00 0.00 0.00 61 1008.8
20260509200422 89 312 0.0 1.7 0.00 0.00 0.00 61 1009.1
20260509195919 89 339 0.9 1.7 0.00 0.00 0.00 60 1009.2
20260509195415 90 104 0.0 1.7 0.00 0.00 0.00 58 1009.3
20260509194914 90 76 0.0 2.6 0.00 0.00 0.00 61 1009.1
20260509194411 90 254 0.9 2.6 0.00 0.00 0.00 57 1009.5
20260509193907 89 12 0.9 1.7 0.00 0.00 0.00 62 1009.4
20260509193407 89 315 0.9 1.7 0.00 0.00 0.00 62 1009.6
20260509192903 89 22 0.0 1.7 0.00 0.00 0.00 60 1009.6
20260509192400 88 262 0.0 1.7 0.00 0.00 0.00 61 1009.7
20260509191855 88 315 0.0 1.7 0.00 0.00 0.00 61 1009.7
20260509191351 88 309 1.7 2.6 0.00 0.00 0.00 62 1009.7
20260509190847 87 44 0.9 1.7 0.00 0.00 0.00 66 1009.7
20260509190344 88 205 0.0 1.7 0.00 0.00 0.00 64 1009.7
20260509185842 87 329 1.7 1.7 0.00 0.00 0.00 63 1009.7
20260509185338 87 209 0.0 0.9 0.00 0.00 0.00 64 1009.7
20260509184836 86 104 0.0 2.6 0.00 0.00 0.00 68 1010.1
20260509184332 86 124 0.0 0.9 0.00 0.00 0.00 67 1010.2
20260509183829 86 347 0.9 1.7 0.00 0.00 0.00 65 1010.2
20260509183324 86 293 0.9 1.7 0.00 0.00 0.00 66 1010.3
20260509182821 87 322 0.0 2.6 0.00 0.00 0.00 64 1010.2
20260509182318 87 158 0.9 2.6 0.00 0.00 0.00 64 1010.3
20260509181815 86 275 0.9 1.7 0.00 0.00 0.00 68 1010.3
20260509181312 85 307 1.7 1.7 0.00 0.00 0.00 68 1010.4
20260509180810 85 306 0.0 2.6 0.00 0.00 0.00 69 1010.4
20260509180305 84 215 4.3 6.1 0.00 0.00 0.00 67 1010.5
20260509175802 84 194 0.9 1.7 0.00 0.00 0.00 69 1010.7
20260509175259 84 142 0.0 3.5 0.00 0.00 0.00 68 1010.8
20260509174754 84 299 0.0 1.7 0.00 0.00 0.00 70 1010.8
20260509174249 84 125 0.0 0.9 0.00 0.00 0.00 69 1010.9
20260509173746 85 202 0.0 0.9 0.00 0.00 0.00 68 1010.9
20260509173242 86 330 0.9 2.6 0.00 0.00 0.00 66 1010.9
20260509172738 85 129 0.9 1.7 0.00 0.00 0.00 70 1010.9
20260509172235 84 149 1.7 2.6 0.00 0.00 0.00 72 1010.8
20260509171730 85 304 0.0 2.6 0.00 0.00 0.00 70 1010.9
20260509171227 85 129 1.7 2.6 0.00 0.00 0.00 71 1010.6
20260509170724 85 69 1.7 2.6 0.00 0.00 0.00 71 1010.6
20260509170220 84 310 0.0 2.6 0.00 0.00 0.00 75 1010.7
20260509165718 83 154 1.7 2.6 0.00 0.00 0.00 75 1010.6
20260509165214 82 84 0.0 1.7 0.00 0.00 0.00 78 1010.8
20260509164710 81 135 1.7 2.6 0.00 0.00 0.00 77 1010.6
20260509164206 81 187 0.9 1.7 0.00 0.00 0.00 77 1010.7
20260509163703 81 72 0.9 1.7 0.00 0.00 0.00 77 1010.9
20260509163200 81 25 0.0 0.9 0.00 0.00 0.00 77 1010.7
20260509162657 80 134 0.0 1.7 0.00 0.00 0.00 78 1011.0
20260509162152 81 329 0.0 0.0 0.00 0.00 0.00 79 1010.9
20260509161649 80 52 0.0 0.0 0.00 0.00 0.00 80 1011.0
20260509161144 80 89 0.0 1.7 0.00 0.00 0.00 80 1010.9
20260509160640 80 164 0.0 1.7 0.00 0.00 0.00 81 1011.0
20260509160135 80 288 0.9 0.9 0.00 0.00 0.00 81 1011.1
20260509155632 80 235 0.0 2.6 0.00 0.00 0.00 82 1010.9
20260509155128 80 164 0.0 1.7 0.00 0.00 0.00 81 1011.3
20260509154624 79 66 0.0 1.7 0.00 0.00 0.00 84 1011.3
20260509154121 79 108 1.7 1.7 0.00 0.00 0.00 84 1011.4
20260509153618 79 119 0.0 1.7 0.00 0.00 0.00 84 1011.2
20260509153115 78 83 0.9 0.9 0.00 0.00 0.00 86 1011.4
20260509152611 78 128 0.0 1.7 0.00 0.00 0.00 86 1011.3
20260509152109 78 89 0.0 1.7 0.00 0.00 0.00 87 1011.2
20260509151604 78 137 0.0 1.7 0.00 0.00 0.00 87 1011.4
20260509151103 78 95 1.7 1.7 0.00 0.00 0.00 87 1011.3
20260509150600 77 38 0.0 0.9 0.00 0.00 0.00 88 1011.2
20260509150058 77 72 0.0 1.7 0.00 0.00 0.00 89 1011.2
20260509145553 77 117 0.0 1.7 0.00 0.00 0.00 89 1011.1
20260509145049 76 82 0.0 0.9 0.00 0.00 0.00 90 1011.0
20260509144546 76 68 0.9 1.7 0.00 0.00 0.00 91 1011.1
20260509144043 76 73 0.9 1.7 0.00 0.00 0.00 92 1011.0
20260509143540 75 103 0.0 1.7 0.00 0.00 0.00 92 1011.0
20260509143038 75 99 0.9 0.9 0.00 0.00 0.00 92 1010.8
20260509142539 75 118 1.7 1.7 0.00 0.00 0.00 92 1010.6
20260509142035 75 118 0.9 0.9 0.00 0.00 0.00 92 1010.7
20260509141531 75 77 1.7 1.7 0.00 0.00 0.00 93 1010.6
20260509141028 75 132 0.0 0.9 0.00 0.00 0.00 93 1010.3
20260509140525 75 80 0.0 1.7 0.00 0.00 0.00 93 1010.5
20260509140023 75 59 0.0 1.7 0.00 0.00 0.00 93 1010.6
20260509135520 75 75 0.0 1.7 0.00 0.00 0.00 94 1010.4
20260509135017 75 83 1.7 1.7 0.00 0.00 0.00 94 1010.9
20260509134514 74 111 0.0 0.9 0.00 0.00 0.00 95 1010.9
20260509134012 74 67 0.9 1.7 0.00 0.00 0.00 95 1010.9
20260509133508 74 101 1.7 1.7 0.00 0.00 0.00 96 1010.9
20260509133007 74 89 0.0 0.9 0.00 0.00 0.00 96 1011.0
20260509132505 74 55 0.0 0.9 0.00 0.00 0.00 96 1011.1
20260509132002 74 62 0.0 0.0 0.00 0.00 0.00 97 1011.2
20260509131458 74 85 0.9 0.9 0.00 0.00 0.00 97 1011.1
20260509130955 74 74 0.0 1.7 0.00 0.00 0.00 97 1011.0
20260509130450 74 87 0.0 1.7 0.00 0.00 0.00 97 1011.1
20260509125948 73 66 0.9 1.7 0.00 0.00 0.00 97 1011.1
20260509125444 73 99 1.7 1.7 0.00 0.00 0.00 97 1011.2
20260509124940 73 130 0.0 0.9 0.00 0.00 0.00 98 1011.4
20260509124437 73 58 0.0 0.9 0.00 0.00 0.00 97 1011.0
20260509123934 73 117 0.0 1.7 0.00 0.00 0.00 97 1011.1
20260509123432 73 99 0.9 0.9 0.00 0.00 0.00 97 1011.2
20260509122928 73 89 0.0 0.9 0.00 0.00 0.00 97 1011.2
20260509122425 72 50 0.0 0.0 0.00 0.00 0.00 97 1011.2
20260509121921 72 66 0.0 0.9 0.00 0.00 0.00 97 1011.1
20260509121418 72 95 0.0 1.7 0.00 0.00 0.00 97 1011.0
20260509120916 72 101 0.9 0.9 0.00 0.00 0.00 97 1010.7
20260509120414 72 62 0.0 0.9 0.00 0.00 0.00 97 1010.3
20260509115912 72 103 0.0 0.9 0.00 0.00 0.00 97 1010.3
20260509115409 72 76 0.0 0.9 0.00 0.00 0.00 97 1010.5
20260509114906 72 83 0.0 0.9 0.00 0.00 0.00 97 1010.4
20260509114405 72 89 0.9 0.9 0.00 0.00 0.00 97 1010.1
20260509113904 72 162 0.0 1.7 0.00 0.00 0.00 97 1010.1
20260509113401 72 102 0.0 1.7 0.00 0.00 0.00 97 1010.2
20260509112857 72 124 0.9 1.7 0.00 0.00 0.00 97 1010.2
20260509112354 72 89 0.0 1.7 0.00 0.00 0.00 97 1010.2
20260509111852 72 89 0.0 0.9 0.00 0.00 0.00 97 1010.6
20260509111348 72 120 0.9 0.9 0.00 0.00 0.00 97 1010.6
20260509110846 72 89 0.0 0.0 0.00 0.00 0.00 97 1010.5
20260509110342 72 128 1.7 1.7 0.00 0.00 0.00 97 1010.6
20260509105841 72 80 0.0 0.9 0.00 0.00 0.00 97 1010.5
20260509105338 72 89 0.0 1.7 0.00 0.00 0.00 97 1010.7
20260509104835 72 50 0.9 1.7 0.00 0.00 0.00 97 1010.9
20260509104331 72 89 0.0 1.7 0.00 0.00 0.00 97 1011.0
20260509103829 72 60 0.9 1.7 0.00 0.00 0.00 97 1010.8
20260509103326 72 25 0.0 0.9 0.00 0.00 0.00 97 1010.7
20260509102825 72 62 0.0 0.9 0.00 0.00 0.00 97 1010.7
20260509102322 72 17 0.0 0.0 0.00 0.00 0.00 97 1010.4
20260509101818 72 55 0.0 1.7 0.00 0.00 0.00 97 1010.4
20260509101314 72 68 0.9 0.9 0.00 0.00 0.00 97 1010.1
20260509100812 72 89 0.0 0.9 0.00 0.00 0.00 97 1009.7
20260509100309 72 53 0.0 1.7 0.00 0.00 0.00 97 1009.6
20260509095805 72 81 0.9 0.9 0.00 0.00 0.00 97 1009.6
20260509095305 72 62 0.0 0.0 0.00 0.00 0.00 97 1009.6
20260509094800 72 108 0.0 0.9 0.00 0.00 0.00 97 1009.7
20260509094256 72 89 0.0 0.9 0.00 0.00 0.00 97 1009.7
20260509093754 72 89 0.0 0.9 0.00 0.00 0.00 97 1009.7
20260509093251 72 101 0.0 0.9 0.00 0.00 0.00 97 1009.9
20260509092750 72 66 0.0 0.0 0.00 0.00 0.00 97 1010.2
20260509092247 72 89 0.0 0.0 0.00 0.00 0.00 97 1010.4
20260509091745 72 129 0.0 0.9 0.00 0.00 0.00 97 1010.2
20260509091241 72 123 0.9 0.9 0.00 0.00 0.00 97 1010.1
20260509090739 72 111 0.0 0.9 0.00 0.00 0.00 97 1010.4
20260509090236 72 93 0.9 0.9 0.00 0.00 0.00 97 1010.4
20260509085734 72 89 0.0 0.9 0.00 0.00 0.00 97 1010.6
20260509085231 72 62 0.0 0.9 0.00 0.00 0.00 97 1010.4
20260509084727 72 50 0.0 0.9 0.00 0.00 0.00 97 1010.4
20260509084224 72 89 0.0 0.0 0.00 0.00 0.00 97 1010.1
20260509083722 72 50 0.0 0.9 0.00 0.00 0.00 97 1010.2
20260509083218 72 44 0.0 0.9 0.00 0.00 0.00 97 1010.4
20260509082715 72 77 0.0 0.0 0.00 0.00 0.00 97 1010.2
20260509082212 72 68 0.9 1.7 0.00 0.00 0.00 97 1010.1
20260509081708 72 89 0.0 0.9 0.00 0.00 0.00 97 1010.1
20260509081206 72 89 0.0 0.9 0.00 0.00 0.00 97 1010.2
20260509080704 72 62 0.0 0.9 0.00 0.00 0.00 97 1010.1
20260509080201 72 96 0.9 1.7 0.00 0.00 0.00 97 1010.0
20260509075659 72 99 0.9 1.7 0.00 0.00 0.00 97 1010.1
20260509075157 72 123 1.7 1.7 0.00 0.00 0.00 97 1010.2
20260509074653 72 80 1.7 1.7 0.00 0.00 0.00 97 1010.3
20260509074150 72 106 0.9 1.7 0.00 0.00 0.00 97 1010.2
20260509073647 72 127 1.7 1.7 0.00 0.00 0.00 96 1010.2
20260509073143 72 126 0.0 1.7 0.00 0.00 0.00 96 1010.3
20260509072641 72 76 1.7 1.7 0.00 0.00 0.00 96 1010.3
20260509072137 72 109 0.9 1.7 0.00 0.00 0.00 96 1010.3
20260509071633 72 122 0.9 1.7 0.00 0.00 0.00 96 1010.5
20260509071131 72 93 0.9 1.7 0.00 0.00 0.00 96 1010.3
20260509070628 72 86 0.9 1.7 0.00 0.00 0.00 96 1010.4
20260509070124 72 100 0.9 1.7 0.00 0.00 0.00 96 1010.7
20260509065620 72 89 0.9 0.9 0.00 0.00 0.00 96 1010.7
20260509065116 72 79 0.0 0.9 0.00 0.00 0.00 96 1010.6
20260509064614 72 85 0.9 0.9 0.00 0.00 0.00 96 1010.6
20260509064112 72 87 0.0 0.9 0.00 0.00 0.00 96 1010.4
20260509063608 72 105 0.9 1.7 0.00 0.00 0.00 96 1010.7
20260509063105 72 94 0.0 1.7 0.00 0.00 0.00 96 1010.5
20260509062602 72 62 0.0 1.7 0.00 0.00 0.00 96 1010.4
20260509062059 72 89 0.0 1.7 0.00 0.00 0.00 96 1010.6
20260509061555 72 122 0.9 1.7 0.00 0.00 0.00 96 1010.8
20260509061053 72 89 0.0 1.7 0.00 0.00 0.00 96 1010.8
20260509060551 72 50 0.0 0.9 0.00 0.00 0.00 96 1010.7
20260509060046 72 94 0.9 1.7 0.00 0.00 0.00 96 1010.7
20260509055542 72 89 0.9 1.7 0.00 0.00 0.00 96 1010.7
20260509055038 72 111 0.0 2.6 0.00 0.00 0.00 96 1010.7
20260509054535 72 87 0.9 1.7 0.00 0.00 0.00 96 1010.9
20260509054033 72 89 0.9 1.7 0.00 0.00 0.00 96 1011.0
20260509053531 72 112 1.7 1.7 0.00 0.00 0.00 96 1011.1
20260509053027 72 86 0.9 2.6 0.00 0.00 0.00 96 1011.0
20260509052525 72 96 0.9 1.7 0.00 0.00 0.00 96 1011.0
20260509052023 71 114 0.9 1.7 0.00 0.00 0.00 96 1011.0
20260509051521 71 89 0.9 1.7 0.00 0.00 0.00 96 1010.9
20260509051018 71 138 1.7 2.6 0.00 0.00 0.00 96 1010.6
20260509050514 71 74 1.7 3.5 0.00 0.00 0.00 96 1010.8
20260509050011 71 100 1.7 1.7 0.00 0.00 0.00 95 1010.9
20260509045508 71 120 0.9 1.7 0.00 0.00 0.00 95 1010.9
20260509045005 71 113 1.7 2.6 0.00 0.00 0.00 95 1011.2
20260509044503 71 102 1.7 2.6 0.00 0.00 0.00 95 1010.9
20260509044000 71 117 1.7 2.6 0.00 0.00 0.00 95 1011.0
20260509043455 71 103 0.0 1.7 0.00 0.00 0.00 95 1010.9
20260509042951 71 83 1.7 1.7 0.00 0.00 0.00 95 1010.8
20260509042449 71 93 1.7 5.2 0.00 0.00 0.00 95 1010.7
20260509041944 71 80 1.7 2.6 0.00 0.00 0.00 95 1010.8
20260509041442 71 60 0.9 3.5 0.00 0.00 0.00 95 1011.0
20260509040940 71 75 0.9 1.7 0.00 0.00 0.00 95 1010.9
20260509040438 71 97 0.9 1.7 0.00 0.00 0.00 95 1010.7
20260509035934 71 87 1.7 2.6 0.00 0.00 0.00 95 1010.8
20260509035431 71 84 0.9 3.5 0.00 0.00 0.00 95 1010.8
20260509034927 71 110 1.7 2.6 0.00 0.00 0.00 95 1010.7
20260509034425 71 80 1.7 2.6 0.00 0.00 0.00 95 1010.8
20260509033922 71 89 0.9 1.7 0.00 0.00 0.00 95 1010.7